User: anonymous   Login
Location: ??
(35.5052°N, 139.7262°E)
Time: 02:34:49
(UTC+00:00)
Language:

Cosmos 1900 - Orbit

View from above orbital plane
View from above orbital plane
View from above satellite
View from above satellite

Ground track
Ground track

The orbit data is extracted from the following two-line orbital elements,

1 18665U 87101A   21270.43804923 -.00000043  00000-0  13781-4 0  9990
2 18665  66.0844 158.2444 0026513  79.1609 281.2478 14.54512582797735
Epoch (UTC): 27 September 2021 10:30:47
Eccentricity: 0.0026513
inclination: 66.0844°
perigee height: 692 km
apogee height: 730 km
right ascension of ascending node: 158.2444°
argument of perigee: 79.1609°
revolutions per day: 14.54512582
mean anomaly at epoch: 281.2478°
orbit number at epoch: 79773

The dashed part of the orbit path shows where the satellite is in the earth's shadow,  

DLR